Home   Weather   Baden-Baden   Past weeks

Flag for Germany Past Weather in Baden-Baden, Baden-Württemberg, Germany — Yesterday and Last 2 Weeks

Now
39 °F

Passing clouds.


Feels Like: 37 °F
Forecast: 26 / 37 °F
Wind: 3 mph from Southwest

Location: Karlsruhe - Baden Wurttemberg

Current Time: Dec 2, 2016 at 9:07:00 pm

Latest Report: Dec 2, 2016 at 8:20 pm


Visibility: N/A

Pressure: 30.18 "Hg

Humidity: 93%

Dew Point: 37 °F

Location of Baden-BadenLocation

Past Weather in Baden-Baden — Graph

°F

Baden-Baden Temperature Yesterday

Maximum temperature yesterday: 43 °F (at 2:20 pm)
Minimum temperature yesterday: 23 °F (at 4:50 am)
Average temperature yesterday: 34 °F

High & Low Weather Summary for the Past Weeks

 TemperatureHumidityPressure
High63 °F (Nov 20, 2:20 pm)100% (Nov 19, 10:20 am)30.60 "Hg (Nov 19, 10:20 am)
Low18 °F (Nov 30, 7:20 am)44% (Nov 20, 11:50 am)29.56 "Hg (Nov 18, 7:20 am)
Average42 °F85%30.04 "Hg
* Reported Nov 17 7:20 pm — Dec 2 7:50 pm, Baden-Baden, Weather by CustomWeather, © 2016

Note: Actual official high and low records may vary slightly from our data, if they occured in-between our weather recording intervals... More about our weather records

Advertising

Baden-Baden Weather History for the Previous 24 Hours

Scroll right to see more
 ConditionsComfort  
Time TempWeatherWind HumidityBarometerVisibility
7:50 pm
Fri, Dec 2
39 °FPassing clouds.2 mph87%30.18 "HgN/A
7:20 pm39 °FPassing clouds.2 mph93%30.18 "HgN/A
6:50 pm39 °FPassing clouds.No wind87%30.18 "HgN/A
6:20 pm39 °FPassing clouds.3 mph87%30.18 "HgN/A
5:50 pm39 °FPassing clouds.2 mph87%30.18 "HgN/A
5:20 pm39 °FPassing clouds.1 mph87%30.18 "HgN/A
4:50 pm41 °FPassing clouds.5 mph81%30.18 "HgN/A
4:20 pm41 °FPartly sunny.2 mph81%30.21 "HgN/A
3:50 pm41 °FPartly sunny.3 mph81%30.21 "HgN/A
3:20 pm41 °FPartly sunny.3 mph81%30.21 "HgN/A
2:50 pm41 °FPartly sunny.5 mph76%30.21 "HgN/A
2:20 pm41 °FPartly sunny.5 mph81%30.21 "HgN/A
1:50 pm41 °FBroken clouds.5 mph76%30.21 "HgN/A
1:20 pm41 °FPartly sunny.5 mph76%30.21 "HgN/A
12:50 pm41 °FBroken clouds.6 mph76%30.21 "HgN/A
12:20 pm39 °FBroken clouds.6 mph81%30.24 "HgN/A
11:50 am39 °FBroken clouds.7 mph81%30.24 "HgN/A
11:20 am37 °FPartly sunny.6 mph87%30.24 "HgN/A
10:50 am37 °FPartly sunny.7 mph87%30.24 "HgN/A
10:20 am37 °FPartly sunny.8 mph87%30.24 "HgN/A
9:50 am37 °FPartly sunny.8 mph87%30.24 "HgN/A
9:20 am36 °FPartly sunny.6 mph93%30.24 "HgN/A
8:50 am36 °FDrizzle. Partly sunny.6 mph93%30.24 "HgN/A
8:20 am36 °FLight rain. Broken clouds.7 mph93%30.24 "Hg6 mi
7:50 am36 °FLight rain. Passing clouds.6 mph93%30.24 "Hg6 mi
7:20 am36 °FLight rain. Partly cloudy.6 mph93%30.24 "HgN/A
6:50 am36 °FLight rain. Passing clouds.3 mph93%30.24 "HgN/A
6:20 am36 °FLight rain. Passing clouds.5 mph93%30.24 "HgN/A
5:50 am36 °FLight rain. Passing clouds.6 mph93%30.24 "HgN/A
5:20 am37 °FPassing clouds.5 mph87%30.24 "HgN/A
4:50 am36 °FPartly cloudy.6 mph93%30.24 "HgN/A
11:20 pm
Thu, Dec 1
37 °FPartly cloudy.2 mph87%30.30 "HgN/A
10:50 pm37 °FPassing clouds.2 mph87%30.30 "HgN/A
10:20 pm37 °FPassing clouds.5 mph87%30.30 "HgN/A
9:50 pm37 °FPassing clouds.3 mph87%30.33 "HgN/A
9:20 pm37 °FPassing clouds.3 mph87%30.33 "HgN/A
Weather by CustomWeather, © 2016

See weather overviewHow to use our weather pages